Terminal Aerodrome Forecast
Issued by NWS

Home | Current Version | Previous Version | Text Only | Print | Product List | Glossary On
Versions: 1 2 3 4 5 6 7 8 9 10 11 12 13 14 15 16 17 18 19 20 21
000
FTUS44 KBMX 021000 AAA
TAFEET
TAF AMD
KEET 021017Z 0210/0306 00000KT P6SM SKC
     FM021500 17005KT P6SM SCT040 SCT130=

USA.gov is the U.S. government's official web portal to all federal, state and local government web resources and services.